UAE957 OMDB-OLBA

Flight info

Callsign UAE957
Flight time 3h 46m
Altitude 38000
Route SENPA N571 ALPOB L768 VATIM/N0495F400 L550 NOVPA J981 DATOK L550 STEPA L78 DESPO M31 KUKLA
Aircraft A388/J-SADE2E3FGHIJ3J4J5M1RWXY/LB1D1

Departure

Time 2026-05-08 15:16
Airport Dubai International Airport (OMDB)

Arrival

Time 2026-05-08 19:03
Airport Beirut Rafic Hariri International Airport (OLBA)
Time Latitude Longitude Altitude Speed Heading
2026-05-08 14:46 25.25017 55.36061 23 ft 0 kts 211°
2026-05-08 14:55 25.25020 55.36063 23 ft 2 kts 211°
2026-05-08 14:55 25.25027 55.36068 29 ft 2 kts 211°
2026-05-08 14:55 25.25038 55.36075 25 ft 2 kts 211°
2026-05-08 14:56 25.25049 55.36082 27 ft 2 kts 207°
2026-05-08 14:56 25.25059 55.36091 29 ft 2 kts 224°
2026-05-08 14:56 25.25067 55.36107 29 ft 3 kts 251°
2026-05-08 14:56 25.25068 55.36127 29 ft 3 kts 273°
2026-05-08 14:57 25.25064 55.36147 30 ft 3 kts 286°
2026-05-08 14:57 25.25058 55.36166 30 ft 3 kts 294°
2026-05-08 14:57 25.25050 55.36183 30 ft 2 kts 297°
2026-05-08 14:57 25.25045 55.36192 30 ft 0 kts 301°
2026-05-08 15:03 25.25057 55.36171 27 ft 6 kts 303°
2026-05-08 15:03 25.25086 55.36122 26 ft 9 kts 303°
2026-05-08 15:03 25.25126 55.36053 26 ft 12 kts 302°
2026-05-08 15:04 25.25174 55.35968 22 ft 14 kts 302°
2026-05-08 15:04 25.25229 55.35868 21 ft 16 kts 301°
2026-05-08 15:04 25.25289 55.35756 21 ft 17 kts 300°
2026-05-08 15:04 25.25352 55.35640 17 ft 18 kts 302°
2026-05-08 15:05 25.25418 55.35523 17 ft 18 kts 302°
2026-05-08 15:05 25.25483 55.35408 23 ft 17 kts 301°
2026-05-08 15:05 25.25544 55.35298 22 ft 16 kts 301°
2026-05-08 15:05 25.25600 55.35197 24 ft 11 kts 301°
2026-05-08 15:06 25.25635 55.35155 27 ft 6 kts 346°
2026-05-08 15:06 25.25681 55.35156 26 ft 7 kts 22°
2026-05-08 15:06 25.25739 55.35197 25 ft 14 kts 35°
2026-05-08 15:06 25.25831 55.35264 23 ft 15 kts 32°
2026-05-08 15:07 25.25914 55.35320 25 ft 11 kts 31°
2026-05-08 15:07 25.25917 55.35322 23 ft 0 kts 31°
2026-05-08 15:07 25.25920 55.35324 23 ft 2 kts 31°
2026-05-08 15:07 25.25945 55.35342 24 ft 6 kts 40°
2026-05-08 15:08 25.25979 55.35393 26 ft 11 kts 65°
2026-05-08 15:08 25.25994 55.35452 26 ft 14 kts 85°
2026-05-08 15:08 25.25945 55.35611 27 ft 20 kts 121°
2026-05-08 15:08 25.25867 55.35753 24 ft 23 kts 121°
2026-05-08 15:09 25.25778 55.35909 27 ft 25 kts 123°
2026-05-08 15:09 25.25682 55.36079 26 ft 26 kts 122°
2026-05-08 15:09 25.25588 55.36251 27 ft 27 kts 121°
2026-05-08 15:09 25.25503 55.36409 27 ft 22 kts 121°
2026-05-08 15:10 25.25419 55.36563 27 ft 25 kts 122°
2026-05-08 15:10 25.25321 55.36731 28 ft 26 kts 122°
2026-05-08 15:10 25.25225 55.36904 31 ft 27 kts 121°
2026-05-08 15:10 25.25131 55.37077 37 ft 21 kts 122°
2026-05-08 15:11 25.25062 55.37199 39 ft 20 kts 122°
2026-05-08 15:11 25.24986 55.37337 42 ft 22 kts 121°
2026-05-08 15:11 25.24903 55.37487 43 ft 24 kts 122°
2026-05-08 15:11 25.24810 55.37651 44 ft 26 kts 122°
2026-05-08 15:12 25.24738 55.37785 44 ft 13 kts 120°
2026-05-08 15:12 25.24698 55.37860 44 ft 12 kts 121°
2026-05-08 15:12 25.24671 55.37932 45 ft 6 kts 70°
2026-05-08 15:12 25.24687 55.37957 45 ft 0 kts 38°
2026-05-08 15:14 25.24693 55.37962 45 ft 4 kts 38°
2026-05-08 15:14 25.24730 55.37994 45 ft 9 kts 35°
2026-05-08 15:14 25.24779 55.38029 46 ft 6 kts 22°
2026-05-08 15:15 25.24797 55.38026 45 ft 2 kts 316°
2026-05-08 15:15 25.24812 55.38005 45 ft 6 kts 307°
2026-05-08 15:15 25.24853 55.37938 45 ft 25 kts 302°
2026-05-08 15:15 25.25090 55.37508 46 ft 104 kts 301°
2026-05-08 15:16 25.25578 55.36639 36 ft 157 kts 301°
2026-05-08 15:16 25.26188 55.35556 365 ft 167 kts 301°
2026-05-08 15:16 25.26799 55.34501 958 ft 161 kts 303°
2026-05-08 15:16 25.27401 55.33480 1563 ft 156 kts 302°
2026-05-08 15:17 25.27995 55.32484 2100 ft 157 kts 301°
2026-05-08 15:17 25.28611 55.31415 2418 ft 172 kts 299°
2026-05-08 15:17 25.29175 55.30174 2567 ft 193 kts 282°
2026-05-08 15:17 25.29341 55.28611 2825 ft 216 kts 274°
2026-05-08 15:18 25.29413 55.26854 3076 ft 239 kts 272°
2026-05-08 15:18 25.29483 55.24929 3353 ft 260 kts 274°
2026-05-08 15:18 25.29573 55.22914 3933 ft 265 kts 274°
2026-05-08 15:18 25.29678 55.20864 4543 ft 271 kts 274°
2026-05-08 15:19 25.29791 55.18785 5218 ft 272 kts 274°
2026-05-08 15:19 25.29911 55.16667 5794 ft 280 kts 274°
2026-05-08 15:19 25.30033 55.14508 6434 ft 284 kts 274°
2026-05-08 15:19 25.30155 55.12327 7154 ft 284 kts 273°
2026-05-08 15:20 25.30279 55.10115 7869 ft 286 kts 272°
2026-05-08 15:20 25.30401 55.07916 8590 ft 287 kts 272°
2026-05-08 15:20 25.30524 55.05707 9295 ft 290 kts 272°
2026-05-08 15:20 25.30646 55.03503 9973 ft 293 kts 271°
2026-05-08 15:21 25.30772 55.01189 10360 ft 308 kts 271°
2026-05-08 15:21 25.30904 54.98756 10535 ft 327 kts 271°
2026-05-08 15:21 25.31044 54.96168 10724 ft 344 kts 271°
2026-05-08 15:21 25.31191 54.93497 11255 ft 350 kts 271°
2026-05-08 15:22 25.31340 54.90802 11861 ft 353 kts 271°
2026-05-08 15:22 25.31490 54.88082 12484 ft 357 kts 271°
2026-05-08 15:22 25.31639 54.85334 13107 ft 360 kts 270°
2026-05-08 15:22 25.31789 54.82550 13701 ft 364 kts 270°
2026-05-08 15:23 25.31940 54.79747 14269 ft 367 kts 270°
2026-05-08 15:23 25.32092 54.76913 14846 ft 370 kts 271°
2026-05-08 15:23 25.32245 54.74063 15391 ft 374 kts 271°
2026-05-08 15:23 25.32398 54.71196 15958 ft 377 kts 271°
2026-05-08 15:24 25.32553 54.68284 16527 ft 380 kts 271°
2026-05-08 15:24 25.32708 54.65364 17061 ft 383 kts 271°
2026-05-08 15:24 25.32864 54.62394 17618 ft 386 kts 272°
2026-05-08 15:24 25.33021 54.59417 18158 ft 389 kts 272°
2026-05-08 15:25 25.33177 54.56422 18644 ft 391 kts 272°
2026-05-08 15:25 25.33479 54.53422 19093 ft 394 kts 279°
2026-05-08 15:25 25.34153 54.50474 19567 ft 398 kts 285°
2026-05-08 15:25 25.34976 54.47541 20012 ft 400 kts 285°
2026-05-08 15:26 25.35774 54.44608 20473 ft 402 kts 285°
2026-05-08 15:26 25.36302 54.42647 20770 ft 404 kts 284°
2026-05-08 15:26 25.37103 54.39667 21210 ft 406 kts 284°
2026-05-08 15:26 25.37911 54.36661 21648 ft 409 kts 284°
2026-05-08 15:27 25.38724 54.33637 22087 ft 411 kts 284°
2026-05-08 15:27 25.39538 54.30610 22531 ft 413 kts 284°
2026-05-08 15:27 25.40350 54.27588 22962 ft 415 kts 284°
2026-05-08 15:27 25.41148 54.24502 23390 ft 417 kts 283°
2026-05-08 15:28 25.41915 54.21393 23737 ft 419 kts 282°
2026-05-08 15:28 25.42676 54.18281 24188 ft 418 kts 282°
2026-05-08 15:28 25.43435 54.15203 25213 ft 399 kts 282°
2026-05-08 15:28 25.44160 54.12279 25900 ft 394 kts 282°
2026-05-08 15:29 25.44887 54.09331 26216 ft 398 kts 282°
2026-05-08 15:29 25.45604 54.06371 26611 ft 400 kts 282°
2026-05-08 15:29 25.46317 54.03394 27111 ft 399 kts 281°
2026-05-08 15:29 25.47019 54.00472 27949 ft 390 kts 281°
2026-05-08 15:30 25.47717 53.97558 28394 ft 393 kts 281°
2026-05-08 15:30 25.48418 53.94633 28858 ft 395 kts 281°
2026-05-08 15:30 25.49125 53.91682 29332 ft 397 kts 281°
2026-05-08 15:30 25.49834 53.88723 29825 ft 400 kts 281°
2026-05-08 15:31 25.50547 53.85745 30254 ft 402 kts 281°
2026-05-08 15:31 25.51265 53.82747 30713 ft 405 kts 281°
2026-05-08 15:31 25.51988 53.79722 31163 ft 407 kts 281°
2026-05-08 15:31 25.52716 53.76678 31611 ft 410 kts 281°
2026-05-08 15:32 25.53446 53.73621 32058 ft 412 kts 281°
2026-05-08 15:32 25.54186 53.70532 32474 ft 415 kts 281°
2026-05-08 15:32 25.54928 53.67433 32885 ft 418 kts 281°
2026-05-08 15:32 25.55674 53.64315 33297 ft 421 kts 281°
2026-05-08 15:33 25.56424 53.61173 33707 ft 423 kts 281°
2026-05-08 15:33 25.57180 53.58005 34055 ft 426 kts 280°
2026-05-08 15:33 25.57938 53.54827 34395 ft 428 kts 280°
2026-05-08 15:33 25.58697 53.51639 34789 ft 429 kts 280°
2026-05-08 15:34 25.59459 53.48441 35234 ft 428 kts 280°
2026-05-08 15:34 25.60226 53.45216 35699 ft 427 kts 280°
2026-05-08 15:34 25.60986 53.42008 35847 ft 434 kts 280°
2026-05-08 15:34 25.61755 53.38751 35921 ft 442 kts 280°
2026-05-08 15:35 25.63335 53.32046 36073 ft 458 kts 280°
2026-05-08 15:35 25.64969 53.25111 36355 ft 471 kts 280°
2026-05-08 15:36 25.65797 53.21599 36821 ft 470 kts 280°
2026-05-08 15:36 25.66627 53.18079 37323 ft 469 kts 280°
2026-05-08 15:36 25.67446 53.14597 37720 ft 469 kts 280°
2026-05-08 15:36 25.68271 53.11073 37805 ft 470 kts 280°
2026-05-08 15:37 25.69962 53.04102 37805 ft 471 kts 283°
2026-05-08 15:37 25.72362 52.97593 37806 ft 479 kts 292°
2026-05-08 15:38 25.73900 52.94376 37803 ft 479 kts 292°
2026-05-08 15:38 25.76995 52.87833 37808 ft 479 kts 292°
2026-05-08 15:39 25.80072 52.81294 37796 ft 478 kts 292°
2026-05-08 15:39 25.83148 52.74760 37800 ft 477 kts 292°
2026-05-08 15:40 25.86220 52.68231 37802 ft 477 kts 292°
2026-05-08 15:40 25.89282 52.61714 37798 ft 476 kts 292°
2026-05-08 15:41 25.92257 52.55167 37799 ft 474 kts 290°
2026-05-08 15:41 25.95132 52.48572 37797 ft 474 kts 290°
2026-05-08 15:42 25.98035 52.41950 37797 ft 473 kts 290°
2026-05-08 15:42 26.00940 52.35387 37796 ft 474 kts 291°
2026-05-08 15:43 26.03878 52.28827 37806 ft 473 kts 290°
2026-05-08 15:43 26.06807 52.22265 37811 ft 474 kts 290°
2026-05-08 15:44 26.09731 52.15697 37817 ft 474 kts 290°
2026-05-08 15:44 26.12655 52.09116 37830 ft 474 kts 290°
2026-05-08 15:45 26.15574 52.02537 37835 ft 475 kts 290°
2026-05-08 15:45 26.18506 51.95952 37840 ft 475 kts 290°
2026-05-08 15:46 26.21465 51.89367 37842 ft 475 kts 290°
2026-05-08 15:46 26.24367 51.82765 37848 ft 474 kts 289°
2026-05-08 15:47 26.27283 51.76164 37851 ft 475 kts 290°
2026-05-08 15:47 26.30223 51.69581 37850 ft 475 kts 290°
2026-05-08 15:48 26.34629 51.59700 37850 ft 474 kts 290°
2026-05-08 15:49 26.37531 51.53106 37851 ft 472 kts 287°
2026-05-08 15:49 26.39823 51.46245 37857 ft 468 kts 283°
2026-05-08 15:50 26.42008 51.39408 37858 ft 468 kts 283°
2026-05-08 15:50 26.44197 51.32572 37861 ft 468 kts 283°
2026-05-08 15:51 26.46386 51.25726 37865 ft 468 kts 283°
2026-05-08 15:51 26.48574 51.18870 37863 ft 469 kts 283°
2026-05-08 15:52 26.50754 51.12024 37863 ft 468 kts 283°
2026-05-08 15:52 26.52931 51.05177 37862 ft 468 kts 283°
2026-05-08 15:53 26.55110 50.98307 37884 ft 468 kts 282°
2026-05-08 15:53 26.57275 50.91467 37885 ft 467 kts 282°
2026-05-08 15:54 26.59410 50.84623 37879 ft 466 kts 282°
2026-05-08 15:54 26.61523 50.77783 37895 ft 465 kts 282°
2026-05-08 15:55 26.63633 50.70952 37888 ft 465 kts 282°
2026-05-08 15:55 26.66713 50.60713 37890 ft 462 kts 281°
2026-05-08 15:56 26.68720 50.53891 37897 ft 462 kts 281°
2026-05-08 15:56 26.70743 50.47022 37896 ft 460 kts 280°
2026-05-08 15:57 26.72508 50.40171 37900 ft 457 kts 278°
2026-05-08 15:57 26.74219 50.33329 37904 ft 457 kts 278°
2026-05-08 15:58 26.75662 50.27654 37906 ft 456 kts 279°
2026-05-08 15:58 26.77596 50.20867 37909 ft 458 kts 282°
2026-05-08 15:59 26.79671 50.14126 37906 ft 457 kts 281°
2026-05-08 15:59 26.81700 50.07391 37911 ft 456 kts 281°
2026-05-08 16:00 26.83704 50.00659 37909 ft 455 kts 281°
2026-05-08 16:00 26.85695 49.93946 37907 ft 454 kts 281°
2026-05-08 16:01 26.87681 49.87234 37896 ft 453 kts 281°
2026-05-08 16:01 26.89673 49.80493 37897 ft 452 kts 281°
2026-05-08 16:02 26.91643 49.73811 37889 ft 451 kts 280°
2026-05-08 16:02 26.93606 49.67143 37886 ft 450 kts 280°
2026-05-08 16:03 26.95564 49.60477 37888 ft 450 kts 280°
2026-05-08 16:03 26.97517 49.53818 37879 ft 449 kts 280°
2026-05-08 16:04 26.99461 49.47175 37884 ft 448 kts 280°
2026-05-08 16:04 27.01651 49.40606 37889 ft 455 kts 287°
2026-05-08 16:05 27.04689 49.34313 37886 ft 459 kts 291°
2026-05-08 16:05 27.07822 49.28091 37894 ft 458 kts 290°
2026-05-08 16:06 27.10938 49.21877 37900 ft 456 kts 290°
2026-05-08 16:06 27.14053 49.15667 37900 ft 455 kts 290°
2026-05-08 16:07 27.17152 49.09483 37906 ft 454 kts 290°
2026-05-08 16:07 27.20245 49.03304 37896 ft 453 kts 290°
2026-05-08 16:08 27.23331 48.97127 37900 ft 452 kts 290°
2026-05-08 16:08 27.26401 48.90969 37898 ft 452 kts 290°
2026-05-08 16:09 27.29471 48.84804 37896 ft 451 kts 290°
2026-05-08 16:09 27.32551 48.78610 37901 ft 451 kts 290°
2026-05-08 16:10 27.35605 48.72458 37906 ft 450 kts 290°
2026-05-08 16:10 27.38656 48.66304 37904 ft 450 kts 290°
2026-05-08 16:11 27.41701 48.60154 37906 ft 450 kts 290°
2026-05-08 16:11 27.44745 48.53996 37912 ft 450 kts 290°
2026-05-08 16:12 27.47778 48.47853 37913 ft 449 kts 290°
2026-05-08 16:12 27.50810 48.41701 37913 ft 449 kts 289°
2026-05-08 16:13 27.53844 48.35538 37913 ft 449 kts 289°
2026-05-08 16:13 27.56874 48.29374 37914 ft 450 kts 289°
2026-05-08 16:14 27.59907 48.23200 37919 ft 451 kts 289°
2026-05-08 16:14 27.62946 48.17015 37927 ft 452 kts 289°
2026-05-08 16:15 27.66008 48.10775 37936 ft 453 kts 289°
2026-05-08 16:15 27.69059 48.04545 37944 ft 454 kts 289°
2026-05-08 16:16 27.72112 47.98293 37951 ft 455 kts 289°
2026-05-08 16:16 27.75156 47.92045 37958 ft 455 kts 289°
2026-05-08 16:17 27.77689 47.86837 37961 ft 455 kts 289°
2026-05-08 16:17 27.81249 47.79507 37945 ft 455 kts 289°
2026-05-08 16:18 27.84160 47.73202 37959 ft 448 kts 284°
2026-05-08 16:18 27.86306 47.66674 37966 ft 442 kts 279°
2026-05-08 16:19 27.88346 47.60111 37960 ft 442 kts 280°
2026-05-08 16:19 27.90388 47.53555 37965 ft 442 kts 279°
2026-05-08 16:20 27.92418 47.47000 37971 ft 442 kts 279°
2026-05-08 16:20 27.94453 47.40412 37975 ft 441 kts 279°
2026-05-08 16:21 27.96474 47.33853 37969 ft 441 kts 279°
2026-05-08 16:21 27.98489 47.27303 37967 ft 441 kts 279°
2026-05-08 16:22 28.00501 47.20752 37970 ft 440 kts 279°
2026-05-08 16:22 28.02509 47.14198 37976 ft 440 kts 279°
2026-05-08 16:23 28.04509 47.07660 37976 ft 440 kts 279°
2026-05-08 16:23 28.06510 47.01107 37982 ft 440 kts 278°
2026-05-08 16:24 28.08504 46.94566 37999 ft 438 kts 278°
2026-05-08 16:24 28.10487 46.88046 37994 ft 438 kts 278°
2026-05-08 16:25 28.12604 46.81565 37990 ft 440 kts 280°
2026-05-08 16:25 28.14801 46.75094 37983 ft 439 kts 280°
2026-05-08 16:26 28.16976 46.68596 37983 ft 438 kts 280°
2026-05-08 16:26 28.19121 46.62140 37979 ft 437 kts 279°
2026-05-08 16:27 28.21260 46.55689 37983 ft 437 kts 279°
2026-05-08 16:27 28.23395 46.49236 37978 ft 437 kts 279°
2026-05-08 16:28 28.25525 46.42790 37979 ft 436 kts 279°
2026-05-08 16:28 28.27649 46.36351 37983 ft 436 kts 279°
2026-05-08 16:29 28.29772 46.29903 37981 ft 436 kts 279°
2026-05-08 16:29 28.31891 46.23453 37981 ft 436 kts 279°
2026-05-08 16:30 28.33646 46.18103 37985 ft 436 kts 279°
2026-05-08 16:30 28.35758 46.11655 37984 ft 436 kts 279°
2026-05-08 16:31 28.38076 46.05234 37985 ft 441 kts 282°
2026-05-08 16:31 28.40515 45.98846 37983 ft 441 kts 282°
2026-05-08 16:32 28.42932 45.92392 37986 ft 440 kts 282°
2026-05-08 16:32 28.45314 45.85977 37982 ft 440 kts 281°
2026-05-08 16:33 28.47685 45.79572 37982 ft 441 kts 281°
2026-05-08 16:33 28.50060 45.73146 37988 ft 441 kts 281°
2026-05-08 16:34 28.52439 45.66698 37990 ft 442 kts 281°
2026-05-08 16:34 28.54815 45.60248 37990 ft 442 kts 281°
2026-05-08 16:35 28.57192 45.53786 37987 ft 443 kts 281°
2026-05-08 16:35 28.59580 45.47281 37996 ft 443 kts 281°
2026-05-08 16:36 28.61954 45.40803 37994 ft 443 kts 281°
2026-05-08 16:36 28.64325 45.34323 37999 ft 443 kts 281°
2026-05-08 16:37 28.66685 45.27861 37999 ft 443 kts 281°
2026-05-08 16:37 28.69050 45.21373 37994 ft 443 kts 281°
2026-05-08 16:38 28.71405 45.14903 38010 ft 442 kts 281°
2026-05-08 16:38 28.73756 45.08431 38001 ft 442 kts 281°
2026-05-08 16:39 28.76105 45.01954 38018 ft 441 kts 281°
2026-05-08 16:39 28.78441 44.95500 38009 ft 441 kts 281°
2026-05-08 16:40 28.80803 44.88947 37996 ft 445 kts 281°
2026-05-08 16:40 28.83142 44.82497 37997 ft 438 kts 281°
2026-05-08 16:41 28.85171 44.76001 38002 ft 430 kts 275°
2026-05-08 16:42 28.86677 44.66044 38002 ft 417 kts 266°
2026-05-08 16:42 28.87204 44.59430 37998 ft 419 kts 266°
2026-05-08 16:43 28.87742 44.52822 37996 ft 419 kts 266°
2026-05-08 16:43 28.88269 44.46207 37994 ft 419 kts 266°
2026-05-08 16:44 28.88790 44.39582 37992 ft 419 kts 266°
2026-05-08 16:44 28.89308 44.32950 37995 ft 423 kts 266°
2026-05-08 16:45 28.89828 44.26130 38003 ft 443 kts 266°
2026-05-08 16:45 28.90378 44.18953 37988 ft 462 kts 267°
2026-05-08 16:45 28.90664 44.15366 37971 ft 441 kts 266°
2026-05-08 16:46 28.90944 44.11975 38055 ft 421 kts 266°
2026-05-08 16:46 28.91445 44.05371 37999 ft 420 kts 266°
2026-05-08 16:47 28.91937 43.98710 37998 ft 421 kts 266°
2026-05-08 16:47 28.92437 43.92038 37996 ft 422 kts 266°
2026-05-08 16:48 28.92939 43.85317 37998 ft 422 kts 266°
2026-05-08 16:48 28.93435 43.78634 37993 ft 423 kts 266°
2026-05-08 16:49 28.93927 43.71953 37995 ft 423 kts 266°
2026-05-08 16:49 28.94417 43.65254 37996 ft 423 kts 266°
2026-05-08 16:50 28.94904 43.58557 37995 ft 423 kts 266°
2026-05-08 16:50 28.95388 43.51854 37997 ft 424 kts 266°
2026-05-08 16:51 28.95868 43.45143 37996 ft 424 kts 266°
2026-05-08 16:51 28.96337 43.38548 38003 ft 425 kts 266°
2026-05-08 16:52 28.96814 43.31814 38011 ft 425 kts 266°
2026-05-08 16:52 28.97287 43.25053 38020 ft 425 kts 266°
2026-05-08 16:53 28.97989 43.14958 38021 ft 425 kts 266°
2026-05-08 16:53 28.98453 43.08224 38013 ft 426 kts 266°
2026-05-08 16:54 28.98914 43.01482 38012 ft 426 kts 266°
2026-05-08 16:54 28.99375 42.94696 38012 ft 426 kts 265°
2026-05-08 16:55 28.99825 42.87998 38017 ft 426 kts 266°
2026-05-08 16:55 29.00280 42.81190 38014 ft 426 kts 265°
2026-05-08 16:56 29.00725 42.74481 38017 ft 427 kts 265°
2026-05-08 16:56 29.01174 42.67670 38020 ft 428 kts 265°
2026-05-08 16:57 29.01617 42.60888 38021 ft 428 kts 265°
2026-05-08 16:57 29.02058 42.54096 38027 ft 429 kts 265°
2026-05-08 16:58 29.02492 42.47342 38040 ft 429 kts 265°
2026-05-08 16:58 29.02928 42.40501 38035 ft 429 kts 265°
2026-05-08 16:59 29.03286 42.34845 38044 ft 429 kts 265°
2026-05-08 16:59 29.03714 42.28040 38046 ft 430 kts 265°
2026-05-08 17:00 29.04139 42.21236 38053 ft 430 kts 265°
2026-05-08 17:00 29.04562 42.14414 38065 ft 430 kts 265°
2026-05-08 17:01 29.04979 42.07607 38073 ft 429 kts 265°
2026-05-08 17:01 29.05392 42.00804 38072 ft 429 kts 265°
2026-05-08 17:02 29.05803 41.94001 38073 ft 429 kts 265°
2026-05-08 17:02 29.06209 41.87167 38080 ft 428 kts 265°
2026-05-08 17:03 29.06609 41.80371 38071 ft 428 kts 265°
2026-05-08 17:03 29.07006 41.73589 38072 ft 428 kts 265°
2026-05-08 17:04 29.07397 41.66810 38072 ft 427 kts 265°
2026-05-08 17:04 29.07785 41.60037 38074 ft 427 kts 265°
2026-05-08 17:05 29.08171 41.53255 38066 ft 428 kts 265°
2026-05-08 17:05 29.08555 41.46474 38072 ft 428 kts 265°
2026-05-08 17:06 29.08934 41.39685 38067 ft 428 kts 265°
2026-05-08 17:06 29.09314 41.32898 38071 ft 428 kts 265°
2026-05-08 17:07 29.09690 41.26104 38068 ft 428 kts 265°
2026-05-08 17:07 29.10063 41.19311 38073 ft 428 kts 265°
2026-05-08 17:08 29.10431 41.12507 38069 ft 429 kts 265°
2026-05-08 17:08 29.10798 41.05702 38074 ft 429 kts 266°
2026-05-08 17:09 29.11164 40.98838 38073 ft 430 kts 266°
2026-05-08 17:09 29.11525 40.92012 38073 ft 430 kts 266°
2026-05-08 17:10 29.11878 40.85259 38064 ft 431 kts 266°
2026-05-08 17:10 29.12237 40.78325 38070 ft 432 kts 266°
2026-05-08 17:11 29.12588 40.71460 38068 ft 433 kts 266°
2026-05-08 17:11 29.12936 40.64588 38074 ft 433 kts 266°
2026-05-08 17:12 29.13242 40.57700 38062 ft 432 kts 264°
2026-05-08 17:12 29.13048 40.50853 38059 ft 431 kts 262°
2026-05-08 17:13 29.12826 40.43984 38058 ft 433 kts 262°
2026-05-08 17:13 29.12601 40.37093 38068 ft 434 kts 262°
2026-05-08 17:14 29.12369 40.30192 38076 ft 436 kts 262°
2026-05-08 17:14 29.12132 40.23237 38082 ft 438 kts 263°
2026-05-08 17:15 29.11891 40.16269 38085 ft 439 kts 263°
2026-05-08 17:15 29.11644 40.09289 38086 ft 440 kts 263°
2026-05-08 17:16 29.11394 40.02284 38090 ft 441 kts 263°
2026-05-08 17:16 29.11139 39.95234 38077 ft 441 kts 263°
2026-05-08 17:17 29.10907 39.88220 38079 ft 442 kts 265°
2026-05-08 17:17 29.10964 39.81189 38070 ft 443 kts 266°
2026-05-08 17:18 29.11034 39.74147 38074 ft 443 kts 266°
2026-05-08 17:18 29.11066 39.67110 38069 ft 443 kts 266°
2026-05-08 17:19 29.11084 39.60044 38066 ft 444 kts 266°
2026-05-08 17:19 29.11100 39.52981 38057 ft 444 kts 266°
2026-05-08 17:20 29.11111 39.45915 38049 ft 445 kts 266°
2026-05-08 17:20 29.11120 39.38821 38055 ft 446 kts 266°
2026-05-08 17:21 29.11124 39.31731 38052 ft 447 kts 266°
2026-05-08 17:21 29.11125 39.24619 38054 ft 447 kts 267°
2026-05-08 17:22 29.11123 39.17513 38055 ft 447 kts 267°
2026-05-08 17:22 29.11116 39.10345 38053 ft 448 kts 267°
2026-05-08 17:23 29.11105 39.03211 38052 ft 448 kts 267°
2026-05-08 17:23 29.11091 38.96087 38058 ft 448 kts 267°
2026-05-08 17:24 29.11072 38.88978 38056 ft 448 kts 268°
2026-05-08 17:24 29.11042 38.81844 38038 ft 448 kts 268°
2026-05-08 17:25 29.11008 38.74701 38054 ft 449 kts 268°
2026-05-08 17:25 29.10972 38.67572 38057 ft 449 kts 268°
2026-05-08 17:26 29.10928 38.60447 38013 ft 447 kts 274°
2026-05-08 17:26 29.10888 38.53329 38028 ft 448 kts 274°
2026-05-08 17:27 29.10841 38.46186 38047 ft 449 kts 274°
2026-05-08 17:27 29.10816 38.42604 38215 ft 452 kts 274°
2026-05-08 17:27 29.10789 38.38990 38829 ft 448 kts 274°
2026-05-08 17:28 29.10761 38.35429 39254 ft 447 kts 273°
2026-05-08 17:28 29.10733 38.31906 39574 ft 449 kts 273°
2026-05-08 17:28 29.10703 38.28300 39915 ft 450 kts 272°
2026-05-08 17:28 29.10673 38.24721 40254 ft 450 kts 272°
2026-05-08 17:29 29.10642 38.21133 40587 ft 451 kts 272°
2026-05-08 17:29 29.10610 38.17591 40912 ft 452 kts 271°
2026-05-08 17:29 29.10576 38.13939 41036 ft 458 kts 271°
2026-05-08 17:29 29.10541 38.10326 41034 ft 451 kts 271°
2026-05-08 17:30 29.10469 38.03180 41026 ft 450 kts 271°
2026-05-08 17:30 29.10394 37.95999 41024 ft 452 kts 271°
2026-05-08 17:31 29.10329 37.90036 41032 ft 451 kts 271°
2026-05-08 17:31 29.10247 37.82850 41026 ft 452 kts 271°
2026-05-08 17:32 29.10160 37.75660 41026 ft 453 kts 271°
2026-05-08 17:32 29.10070 37.68451 41034 ft 454 kts 272°
2026-05-08 17:33 29.09974 37.61184 41035 ft 454 kts 272°
2026-05-08 17:33 29.09877 37.54016 41039 ft 454 kts 272°
2026-05-08 17:34 29.09789 37.46744 41041 ft 454 kts 272°
2026-05-08 17:34 29.09745 37.39538 41039 ft 454 kts 272°
2026-05-08 17:35 29.09695 37.32317 41036 ft 454 kts 272°
2026-05-08 17:35 29.09636 37.25105 41033 ft 453 kts 272°
2026-05-08 17:36 29.09572 37.17914 41032 ft 453 kts 272°
2026-05-08 17:36 29.09504 37.10706 41027 ft 453 kts 272°
2026-05-08 17:37 29.09432 37.03510 41026 ft 453 kts 272°
2026-05-08 17:37 29.09356 36.96321 41024 ft 453 kts 272°
2026-05-08 17:38 29.09277 36.89111 41016 ft 453 kts 272°
2026-05-08 17:38 29.09194 36.81915 41016 ft 453 kts 272°
2026-05-08 17:39 29.09105 36.74672 41004 ft 453 kts 272°
2026-05-08 17:39 29.09014 36.67466 40996 ft 453 kts 272°
2026-05-08 17:40 29.08920 36.60281 40996 ft 452 kts 272°
2026-05-08 17:40 29.08821 36.53096 40982 ft 452 kts 272°
2026-05-08 17:41 29.08715 36.45932 40972 ft 452 kts 272°
2026-05-08 17:41 29.08517 36.38751 40966 ft 452 kts 272°
2026-05-08 17:42 29.08309 36.31572 40960 ft 451 kts 272°
2026-05-08 17:42 29.08108 36.24408 40947 ft 451 kts 272°
2026-05-08 17:43 29.07970 36.19499 40968 ft 451 kts 272°
2026-05-08 17:43 29.07765 36.12339 40969 ft 451 kts 272°
2026-05-08 17:44 29.07557 36.05176 40964 ft 451 kts 272°
2026-05-08 17:44 29.07343 35.98011 40966 ft 450 kts 272°
2026-05-08 17:45 29.07126 35.90818 40972 ft 450 kts 272°
2026-05-08 17:45 29.06906 35.83675 40975 ft 450 kts 272°
2026-05-08 17:46 29.06682 35.76527 40985 ft 450 kts 272°
2026-05-08 17:46 29.06456 35.69384 40994 ft 449 kts 272°
2026-05-08 17:47 29.06225 35.62246 40995 ft 449 kts 272°
2026-05-08 17:47 29.06029 35.56295 40998 ft 449 kts 272°
2026-05-08 17:48 29.05753 35.48006 41002 ft 449 kts 272°
2026-05-08 17:48 29.05510 35.40834 41005 ft 448 kts 272°
2026-05-08 17:49 29.05264 35.33711 41000 ft 448 kts 271°
2026-05-08 17:49 29.05014 35.26593 40995 ft 448 kts 271°
2026-05-08 17:50 29.04762 35.19479 40988 ft 448 kts 271°
2026-05-08 17:50 29.04506 35.12364 40984 ft 448 kts 271°
2026-05-08 17:51 29.04245 35.05235 40968 ft 448 kts 271°
2026-05-08 17:51 29.03980 34.98110 40959 ft 448 kts 271°
2026-05-08 17:52 29.03712 34.91004 40950 ft 448 kts 271°
2026-05-08 17:53 29.03356 34.80318 40951 ft 447 kts 273°
2026-05-08 17:53 29.03334 34.73175 40947 ft 444 kts 279°
2026-05-08 17:53 29.03903 34.69740 40949 ft 439 kts 290°
2026-05-08 17:54 29.05089 34.66592 40957 ft 436 kts 302°
2026-05-08 17:54 29.06889 34.63770 40966 ft 435 kts 313°
2026-05-08 17:54 29.09162 34.61507 40972 ft 436 kts 325°
2026-05-08 17:55 29.14488 34.58108 40983 ft 438 kts 329°
2026-05-08 17:55 29.19725 34.54551 41004 ft 437 kts 326°
2026-05-08 17:56 29.24816 34.50747 41011 ft 437 kts 325°
2026-05-08 17:56 29.29910 34.46860 41028 ft 437 kts 325°
2026-05-08 17:57 29.34967 34.43000 41040 ft 436 kts 325°
2026-05-08 17:57 29.40024 34.39141 41042 ft 436 kts 325°
2026-05-08 17:58 29.45069 34.35287 41045 ft 435 kts 325°
2026-05-08 17:58 29.50105 34.31435 41055 ft 435 kts 325°
2026-05-08 17:59 29.55138 34.27581 41064 ft 435 kts 325°
2026-05-08 17:59 29.60176 34.23746 41064 ft 435 kts 327°
2026-05-08 18:00 29.64627 34.20945 41062 ft 435 kts 330°
2026-05-08 18:00 29.73502 34.15540 41064 ft 434 kts 330°
2026-05-08 18:01 29.78843 34.12283 41064 ft 434 kts 330°
2026-05-08 18:01 29.83309 34.09558 41068 ft 434 kts 330°
2026-05-08 18:02 29.88627 34.06311 41074 ft 433 kts 330°
2026-05-08 18:02 29.93953 34.03055 41072 ft 432 kts 330°
2026-05-08 18:03 29.99261 33.99807 41071 ft 432 kts 330°
2026-05-08 18:03 30.04576 33.96550 41072 ft 432 kts 330°
2026-05-08 18:04 30.09871 33.93301 41070 ft 432 kts 330°
2026-05-08 18:04 30.15185 33.90037 41068 ft 432 kts 330°
2026-05-08 18:05 30.20483 33.86778 41074 ft 431 kts 330°
2026-05-08 18:05 30.25778 33.83517 41074 ft 431 kts 330°
2026-05-08 18:06 30.31072 33.80253 41084 ft 431 kts 330°
2026-05-08 18:06 30.36359 33.76989 41089 ft 431 kts 330°
2026-05-08 18:07 30.41646 33.73721 41091 ft 431 kts 330°
2026-05-08 18:07 30.46924 33.70455 41094 ft 431 kts 330°
2026-05-08 18:08 30.52230 33.67167 41098 ft 432 kts 330°
2026-05-08 18:08 30.57570 33.63854 41080 ft 432 kts 329°
2026-05-08 18:09 30.62866 33.60564 41082 ft 433 kts 329°
2026-05-08 18:09 30.68178 33.57260 41081 ft 433 kts 329°
2026-05-08 18:10 30.73485 33.53954 41087 ft 433 kts 329°
2026-05-08 18:10 30.78794 33.50644 41108 ft 433 kts 329°
2026-05-08 18:11 30.84103 33.47330 41108 ft 434 kts 329°
2026-05-08 18:11 30.89434 33.43997 41111 ft 434 kts 329°
2026-05-08 18:12 30.94747 33.40672 41115 ft 434 kts 329°
2026-05-08 18:12 31.00067 33.37338 41112 ft 434 kts 329°
2026-05-08 18:13 31.05384 33.34001 41092 ft 434 kts 329°
2026-05-08 18:13 31.10744 33.30634 41088 ft 434 kts 329°
2026-05-08 18:14 31.16026 33.27310 41083 ft 434 kts 329°
2026-05-08 18:14 31.21341 33.23962 41082 ft 434 kts 329°
2026-05-08 18:15 31.26653 33.20612 41085 ft 434 kts 329°
2026-05-08 18:15 31.32030 33.17327 41085 ft 435 kts 333°
2026-05-08 18:16 31.37793 33.15024 41085 ft 440 kts 343°
2026-05-08 18:16 31.43880 33.13936 41090 ft 446 kts 352°
2026-05-08 18:17 31.50111 33.13631 41097 ft 447 kts 353°
2026-05-08 18:17 31.56336 33.13299 41102 ft 448 kts 353°
2026-05-08 18:18 31.62569 33.12978 41108 ft 448 kts 353°
2026-05-08 18:18 31.68797 33.12664 41112 ft 449 kts 353°
2026-05-08 18:19 31.75062 33.12349 41111 ft 449 kts 353°
2026-05-08 18:19 31.81315 33.12033 41115 ft 448 kts 353°
2026-05-08 18:20 31.87553 33.11720 41111 ft 448 kts 353°
2026-05-08 18:20 31.93785 33.11407 41108 ft 448 kts 353°
2026-05-08 18:21 32.00017 33.11093 41109 ft 448 kts 353°
2026-05-08 18:21 32.06243 33.10780 41116 ft 448 kts 353°
2026-05-08 18:22 32.12464 33.10466 41111 ft 448 kts 353°
2026-05-08 18:22 32.18548 33.09301 41120 ft 439 kts 338°
2026-05-08 18:23 32.24044 33.06326 41102 ft 433 kts 325°
2026-05-08 18:23 32.28665 33.01853 41117 ft 430 kts 314°
2026-05-08 18:24 32.32966 32.96839 41109 ft 431 kts 314°
2026-05-08 18:24 32.37247 32.91873 41115 ft 431 kts 314°
2026-05-08 18:25 32.41525 32.86884 41118 ft 432 kts 314°
2026-05-08 18:25 32.45802 32.81883 41120 ft 432 kts 314°
2026-05-08 18:26 32.50078 32.76877 41126 ft 432 kts 314°
2026-05-08 18:26 32.54350 32.71869 41124 ft 432 kts 314°
2026-05-08 18:27 32.57926 32.67670 41125 ft 432 kts 314°
2026-05-08 18:27 32.62886 32.61839 41120 ft 432 kts 314°
2026-05-08 18:28 32.67233 32.56846 41114 ft 432 kts 318°
2026-05-08 18:28 32.72325 32.53009 41115 ft 438 kts 332°
2026-05-08 18:29 32.78203 32.50918 41128 ft 447 kts 347°
2026-05-08 18:29 32.84476 32.50773 41119 ft 458 kts
2026-05-08 18:30 32.90701 32.52711 41120 ft 472 kts 17°
2026-05-08 18:30 32.96415 32.56783 41117 ft 487 kts 33°
2026-05-08 18:31 33.01350 32.62397 41119 ft 491 kts 38°
2026-05-08 18:31 33.06243 32.68082 41118 ft 491 kts 38°
2026-05-08 18:32 33.10312 32.72800 41119 ft 491 kts 38°
2026-05-08 18:32 33.15208 32.78485 41121 ft 491 kts 38°
2026-05-08 18:33 33.20095 32.84169 41117 ft 491 kts 38°
2026-05-08 18:33 33.25011 32.89897 41118 ft 490 kts 38°
2026-05-08 18:34 33.29898 32.95602 41115 ft 490 kts 38°
2026-05-08 18:34 33.34770 33.01297 41117 ft 490 kts 38°
2026-05-08 18:35 33.39642 33.07002 41114 ft 490 kts 38°
2026-05-08 18:35 33.44503 33.12705 41012 ft 487 kts 38°
2026-05-08 18:36 33.46908 33.15534 40761 ft 481 kts 38°
2026-05-08 18:36 33.49285 33.18331 40516 ft 478 kts 38°
2026-05-08 18:36 33.51664 33.21128 40268 ft 479 kts 38°
2026-05-08 18:36 33.54039 33.23921 40030 ft 479 kts 37°
2026-05-08 18:37 33.56416 33.26720 39789 ft 478 kts 37°
2026-05-08 18:37 33.58783 33.29511 39554 ft 478 kts 37°
2026-05-08 18:37 33.61151 33.32305 39325 ft 477 kts 37°
2026-05-08 18:37 33.63518 33.35102 39094 ft 477 kts 37°
2026-05-08 18:38 33.65872 33.37883 38870 ft 477 kts 37°
2026-05-08 18:38 33.68244 33.40685 38606 ft 477 kts 37°
2026-05-08 18:38 33.70611 33.43479 38326 ft 477 kts 37°
2026-05-08 18:38 33.72975 33.46272 38082 ft 477 kts 37°
2026-05-08 18:39 33.75346 33.49073 37800 ft 479 kts 37°
2026-05-08 18:39 33.77717 33.51877 37523 ft 481 kts 37°
2026-05-08 18:39 33.80106 33.54707 37261 ft 482 kts 37°
2026-05-08 18:39 33.82495 33.57540 37002 ft 482 kts 37°
2026-05-08 18:40 33.84866 33.60389 36733 ft 484 kts 38°
2026-05-08 18:40 33.87184 33.63347 36479 ft 486 kts 39°
2026-05-08 18:40 33.89504 33.66373 36228 ft 487 kts 39°
2026-05-08 18:40 33.91777 33.69335 35989 ft 487 kts 39°
2026-05-08 18:41 33.94087 33.72329 35732 ft 489 kts 39°
2026-05-08 18:41 33.96445 33.75372 35488 ft 489 kts 39°
2026-05-08 18:41 33.98767 33.78364 35252 ft 489 kts 39°
2026-05-08 18:41 34.01094 33.81364 35010 ft 490 kts 39°
2026-05-08 18:42 34.03415 33.84356 34768 ft 491 kts 39°
2026-05-08 18:42 34.05758 33.87377 34510 ft 492 kts 39°
2026-05-08 18:42 34.08096 33.90394 33871 ft 492 kts 39°
2026-05-08 18:42 34.10438 33.93415 32886 ft 495 kts 39°
2026-05-08 18:43 34.12779 33.96443 32231 ft 490 kts 40°
2026-05-08 18:43 34.15067 33.99412 31714 ft 481 kts 40°
2026-05-08 18:43 34.17348 34.02369 30996 ft 478 kts 40°
2026-05-08 18:43 34.19612 34.05301 30187 ft 477 kts 40°
2026-05-08 18:44 34.21864 34.08221 29465 ft 472 kts 41°
2026-05-08 18:44 34.24081 34.11102 28815 ft 466 kts 41°
2026-05-08 18:44 34.26276 34.13955 28137 ft 460 kts 41°
2026-05-08 18:44 34.28447 34.16779 27461 ft 455 kts 41°
2026-05-08 18:45 34.30590 34.19568 26786 ft 451 kts 41°
2026-05-08 18:45 34.32717 34.22337 26107 ft 447 kts 41°
2026-05-08 18:45 34.34829 34.25089 25416 ft 444 kts 42°
2026-05-08 18:45 34.36925 34.27821 24738 ft 441 kts 42°
2026-05-08 18:46 34.39008 34.30540 24007 ft 440 kts 43°
2026-05-08 18:46 34.40901 34.33447 23190 ft 444 kts 54°
2026-05-08 18:46 34.42237 34.36829 22353 ft 450 kts 68°
2026-05-08 18:46 34.42891 34.40521 21834 ft 445 kts 83°
2026-05-08 18:47 34.42830 34.44237 21269 ft 442 kts 97°
2026-05-08 18:47 34.42048 34.47812 20663 ft 438 kts 112°
2026-05-08 18:47 34.40597 34.51009 20023 ft 433 kts 127°
2026-05-08 18:47 34.38554 34.53671 19337 ft 429 kts 141°
2026-05-08 18:48 34.36254 34.55953 18672 ft 425 kts 141°
2026-05-08 18:48 34.34088 34.58426 17972 ft 422 kts 134°
2026-05-08 18:48 34.32181 34.61105 17307 ft 417 kts 129°
2026-05-08 18:48 34.30454 34.63892 16652 ft 411 kts 126°
2026-05-08 18:49 34.28834 34.66700 16013 ft 406 kts 125°
2026-05-08 18:49 34.27248 34.69522 15379 ft 401 kts 124°
2026-05-08 18:49 34.25708 34.72276 14761 ft 397 kts 124°
2026-05-08 18:49 34.24160 34.75040 14133 ft 392 kts 124°
2026-05-08 18:50 34.22629 34.77757 13490 ft 388 kts 125°
2026-05-08 18:50 34.21124 34.80414 12882 ft 381 kts 125°
2026-05-08 18:50 34.19630 34.83048 12298 ft 375 kts 125°
2026-05-08 18:50 34.18169 34.85623 11727 ft 369 kts 125°
2026-05-08 18:51 34.16731 34.88156 11160 ft 363 kts 126°
2026-05-08 18:51 34.15310 34.90655 10647 ft 357 kts 126°
2026-05-08 18:51 34.13938 34.93070 10474 ft 341 kts 126°
2026-05-08 18:51 34.12631 34.95369 10339 ft 325 kts 126°
2026-05-08 18:52 34.11383 34.97562 10218 ft 311 kts 126°
2026-05-08 18:52 34.10181 34.99672 10114 ft 297 kts 126°
2026-05-08 18:52 34.09029 35.01694 9787 ft 293 kts 126°
2026-05-08 18:52 34.07876 35.03713 9351 ft 292 kts 126°
2026-05-08 18:53 34.06725 35.05727 8920 ft 291 kts 126°
2026-05-08 18:53 34.05583 35.07726 8450 ft 291 kts 126°
2026-05-08 18:53 34.04437 35.09731 8168 ft 287 kts 126°
2026-05-08 18:53 34.03315 35.11696 7870 ft 282 kts 126°
2026-05-08 18:54 34.02208 35.13633 7546 ft 279 kts 126°
2026-05-08 18:54 34.01114 35.15545 7229 ft 276 kts 126°
2026-05-08 18:54 34.00034 35.17430 6920 ft 273 kts 126°
2026-05-08 18:54 33.98979 35.19335 6579 ft 272 kts 120°
2026-05-08 18:55 33.98598 35.23748 5899 ft 272 kts 72°
2026-05-08 18:55 33.99491 35.25736 5438 ft 275 kts 48°
2026-05-08 18:55 34.00868 35.27346 5231 ft 273 kts 45°
2026-05-08 18:56 34.02093 35.29085 5012 ft 269 kts 53°
2026-05-08 18:56 34.03140 35.30938 4671 ft 266 kts 57°
2026-05-08 18:56 34.04066 35.32859 4425 ft 261 kts 61°
2026-05-08 18:56 34.04860 35.34767 4314 ft 250 kts 64°
2026-05-08 18:57 34.05533 35.36648 4247 ft 240 kts 67°
2026-05-08 18:57 34.05922 35.37901 4195 ft 233 kts 69°
2026-05-08 18:57 34.06311 35.40369 4089 ft 233 kts 97°
2026-05-08 18:57 34.05640 35.42268 4113 ft 257 kts 126°
2026-05-08 18:58 34.04235 35.43600 4099 ft 259 kts 155°
2026-05-08 18:58 34.02464 35.43962 4038 ft 255 kts 182°
2026-05-08 18:58 34.00785 35.43467 3894 ft 245 kts 211°
2026-05-08 18:58 33.99501 35.42259 3757 ft 226 kts 211°
2026-05-08 18:59 33.98016 35.41796 3341 ft 224 kts 170°
2026-05-08 18:59 33.96655 35.42479 2908 ft 203 kts 145°
2026-05-08 18:59 33.95501 35.43379 2458 ft 193 kts 145°
2026-05-08 18:59 33.94391 35.44212 2187 ft 179 kts 146°
2026-05-08 19:00 33.93685 35.44716 2005 ft 176 kts 148°
2026-05-08 19:00 33.92194 35.45506 1707 ft 175 kts 160°
2026-05-08 19:00 33.91028 35.45902 1461 ft 174 kts 163°
2026-05-08 19:00 33.89859 35.46243 1249 ft 173 kts 165°
2026-05-08 19:01 33.88701 35.46571 1020 ft 170 kts 165°
2026-05-08 19:01 33.87582 35.46884 799 ft 156 kts 166°
2026-05-08 19:01 33.86565 35.47165 580 ft 147 kts 167°
2026-05-08 19:01 33.85582 35.47454 366 ft 144 kts 167°
2026-05-08 19:02 33.84609 35.47725 168 ft 144 kts 167°
2026-05-08 19:02 33.83627 35.47993 50 ft 145 kts 166°
2026-05-08 19:02 33.82740 35.48246 44 ft 109 kts 168°
2026-05-08 19:02 33.82196 35.48394 50 ft 52 kts 166°
2026-05-08 19:03 33.82005 35.48475 52 ft 21 kts 157°
2026-05-08 19:03 33.81890 35.48572 55 ft 19 kts 136°
2026-05-08 19:03 33.81805 35.48668 58 ft 15 kts 135°
2026-05-08 19:03 33.81755 35.48757 69 ft 12 kts 111°
2026-05-08 19:04 33.81727 35.48862 69 ft 15 kts 103°
2026-05-08 19:04 33.81711 35.48945 66 ft 10 kts 103°
2026-05-08 19:04 33.81719 35.49014 68 ft 10 kts 50°
2026-05-08 19:04 33.81787 35.49056 64 ft 12 kts
2026-05-08 19:05 33.81831 35.49056 67 ft 0 kts 359°
2026-05-08 19:14 33.81851 35.49055 78 ft 6 kts 358°
2026-05-08 19:14 33.81904 35.49053 67 ft 9 kts 359°
2026-05-08 19:14 33.81980 35.49049 69 ft 12 kts 354°
2026-05-08 19:15 33.82074 35.49039 83 ft 15 kts 356°
2026-05-08 19:15 33.82184 35.49030 73 ft 17 kts 356°
2026-05-08 19:15 33.82303 35.49011 72 ft 18 kts 351°
2026-05-08 19:15 33.82429 35.48986 75 ft 19 kts 351°
2026-05-08 19:16 33.82503 35.48978 80 ft 4 kts 30°
2026-05-08 19:16 33.82515 35.49008 76 ft 6 kts 86°
2026-05-08 19:16 33.82510 35.49072 81 ft 6 kts 111°
2026-05-08 19:16 33.82503 35.49097 70 ft 2 kts 106°
2026-05-08 19:17 33.82500 35.49111 71 ft 0 kts 105°